KD7MPG-3 Weather Reports


time (UTC)temp
F
wind
direction
speed
knots
gust
knots
rain 1hr
in
rain 24hr
in
rain mn
in
humidity
%
barometer
mb
20260831174941 68 329 1.7 4.3 0.00 0.00 0.00 71 1019.5
20260831174440 68 305 1.7 5.2 0.00 0.00 0.00 71 1019.6
20260831173941 67 96 0.9 5.2 0.00 0.00 0.00 72 1019.6
20260831173438 67 67 0.9 4.3 0.00 0.00 0.00 72 1019.7
20260831172937 67 87 0.9 3.5 0.00 0.00 0.00 73 1019.8
20260831172437 66 76 0.9 3.5 0.00 0.00 0.00 75 1019.8
20260831171938 66 313 0.9 3.5 0.00 0.00 0.00 75 1019.8
20260831171434 66 109 1.7 3.5 0.00 0.00 0.00 75 1019.8
20260831170935 65 89 1.7 3.5 0.00 0.00 0.00 76 1019.8
20260831170432 65 49 0.9 3.5 0.00 0.00 0.00 76 1019.8
20260831165930 65 72 0.9 4.3 0.00 0.00 0.00 77 1019.9
20260831165429 64 72 0.9 4.3 0.00 0.00 0.00 77 1020.0
20260831164928 64 78 0.9 3.5 0.00 0.00 0.00 78 1020.0
20260831164428 63 76 1.7 3.5 0.00 0.00 0.00 80 1020.1
20260831163928 63 94 0.9 3.5 0.00 0.00 0.00 81 1020.2
20260831163422 62 98 0.9 3.5 0.00 0.00 0.00 82 1020.2
20260831162922 62 83 0.9 2.6 0.00 0.00 0.00 82 1020.2
20260831162422 61 84 0.9 2.6 0.00 0.00 0.00 83 1020.2
20260831161922 61 71 0.9 5.2 0.00 0.00 0.00 84 1020.3
20260831161422 60 70 0.9 5.2 0.00 0.00 0.00 84 1020.3
20260831160923 60 53 0.9 2.6 0.00 0.00 0.00 85 1020.4
20260831160417 59 79 0.9 2.6 0.00 0.00 0.00 86 1020.3
20260831155916 58 67 0.0 2.6 0.00 0.00 0.00 86 1020.3
20260831155416 58 71 0.0 2.6 0.00 0.00 0.00 87 1020.4
20260831154916 58 71 0.9 2.6 0.00 0.00 0.00 87 1020.3
20260831154416 57 71 1.7 3.5 0.00 0.00 0.00 87 1020.3
20260831153917 57 65 0.9 3.5 0.00 0.00 0.00 87 1020.4
20260831153413 57 26 0.9 2.6 0.00 0.00 0.00 88 1020.4
20260831152912 56 29 0.9 3.5 0.00 0.00 0.00 89 1020.3
20260831152414 56 350 0.0 3.5 0.00 0.00 0.00 89 1020.4
20260831151912 55 9 0.0 2.6 0.00 0.00 0.00 90 1020.3
20260831151409 55 5 0.0 0.0 0.00 0.00 0.00 90 1020.3
20260831150909 54 5 0.0 0.0 0.00 0.00 0.00 91 1020.3
20260831150409 54 9 0.0 0.0 0.00 0.00 0.00 91 1020.4
20260831145906 54 9 0.0 0.0 0.00 0.00 0.00 91 1020.5
20260831145407 53 5 0.0 0.0 0.00 0.00 0.00 92 1020.5
20260831144906 53 9 0.0 0.0 0.00 0.00 0.00 92 1020.5
20260831144403 52 9 0.0 0.0 0.00 0.00 0.00 92 1020.5
20260831143905 52 5 0.0 0.0 0.00 0.00 0.00 92 1020.5
20260831143359 51 10 0.0 0.0 0.00 0.00 0.00 92 1020.4
20260831142858 51 10 0.0 0.0 0.00 0.00 0.00 91 1020.4
20260831142358 51 9 0.0 0.0 0.00 0.00 0.00 91 1020.4
20260831141858 51 5 0.0 0.0 0.00 0.00 0.00 90 1020.3
20260831141358 51 5 0.0 0.0 0.00 0.00 0.00 90 1020.2
20260831140859 50 5 0.0 0.0 0.00 0.00 0.00 90 1020.3
20260831140352 50 5 0.0 0.0 0.00 0.00 0.00 90 1020.4
20260831135851 50 9 0.0 0.0 0.00 0.00 0.00 90 1020.3
20260831135352 50 9 0.0 0.0 0.00 0.00 0.00 90 1020.3
20260831134851 50 5 0.0 0.0 0.00 0.00 0.00 89 1020.4
20260831134352 50 11 0.0 0.0 0.00 0.00 0.00 89 1020.4
20260831133851 50 5 0.0 0.0 0.00 0.00 0.00 89 1020.4
20260831133349 51 5 0.0 0.0 0.00 0.00 0.00 89 1020.5
20260831132848 51 5 0.0 0.0 0.00 0.00 0.00 89 1020.5
20260831132345 51 9 0.0 0.0 0.00 0.00 0.00 89 1020.5
20260831131846 51 9 0.0 0.0 0.00 0.00 0.00 89 1020.5
20260831131346 51 5 0.0 0.0 0.00 0.00 0.00 89 1020.5
20260831130847 51 9 0.0 0.0 0.00 0.00 0.00 89 1020.5
20260831130339 52 5 0.0 0.0 0.00 0.00 0.00 88 1020.5
20260831125840 52 9 0.0 0.0 0.00 0.00 0.00 89 1020.5
20260831125346 52 9 0.0 0.0 0.00 0.00 0.00 89 1020.5
20260831124840 52 11 0.0 0.0 0.00 0.00 0.00 88 1020.6
20260831124338 53 9 0.0 0.0 0.00 0.00 0.00 88 1020.5
20260831123839 53 5 0.0 0.0 0.00 0.00 0.00 88 1020.6
20260831123333 53 5 0.0 0.0 0.00 0.00 0.00 88 1020.6
20260831122831 53 10 0.0 0.0 0.00 0.00 0.00 88 1020.6
20260831122328 54 5 0.0 0.0 0.00 0.00 0.00 87 1020.7
20260831121826 54 5 0.0 0.0 0.00 0.00 0.00 87 1020.7
20260831121331 54 5 0.0 0.0 0.00 0.00 0.00 87 1020.7
20260831120821 54 11 0.0 0.0 0.00 0.00 0.00 87 1020.7
20260831120319 55 10 0.0 0.0 0.00 0.00 0.00 87 1020.6
20260831115820 55 10 0.0 0.0 0.00 0.00 0.00 87 1020.7
20260831115320 55 9 0.0 0.0 0.00 0.00 0.00 87 1020.6
20260831114820 55 5 0.0 0.0 0.00 0.00 0.00 87 1020.7
20260831114321 56 5 0.0 0.0 0.00 0.00 0.00 87 1020.8
20260831113817 56 10 0.0 0.0 0.00 0.00 0.00 87 1020.7
20260831113315 56 5 0.0 0.9 0.00 0.00 0.00 87 1020.9
20260831112813 56 10 0.0 0.9 0.00 0.00 0.00 87 1020.8
20260831112312 56 5 0.0 0.0 0.00 0.00 0.00 87 1020.8
20260831111810 56 9 0.0 0.9 0.00 0.00 0.00 87 1021.0
20260831111309 56 5 0.0 1.7 0.00 0.00 0.00 87 1021.0
20260831110808 56 5 0.0 1.7 0.00 0.00 0.00 87 1020.9
20260831110309 56 5 0.0 1.7 0.00 0.00 0.00 87 1020.9
20260831105807 56 5 0.0 0.9 0.00 0.00 0.00 87 1020.9
20260831105306 56 9 0.0 0.9 0.00 0.00 0.00 87 1021.1
20260831104806 56 9 0.0 0.9 0.00 0.00 0.00 87 1020.9
20260831104305 56 10 0.0 1.7 0.00 0.00 0.00 87 1021.0
20260831103806 56 10 0.0 1.7 0.00 0.00 0.00 87 1021.0
20260831103301 55 5 0.0 0.9 0.00 0.00 0.00 87 1021.1
20260831102802 55 5 0.0 0.9 0.00 0.00 0.00 87 1021.0
20260831102305 55 5 0.0 0.9 0.00 0.00 0.00 88 1021.1
20260831101802 55 9 0.0 0.9 0.00 0.00 0.00 88 1021.1
20260831101302 55 5 0.0 0.9 0.00 0.00 0.00 88 1021.2
20260831100802 55 5 0.0 0.9 0.00 0.00 0.00 88 1021.2
20260831100257 55 5 0.0 0.0 0.00 0.00 0.00 87 1021.2
20260831095759 55 5 0.0 0.0 0.00 0.00 0.00 86 1021.3
20260831095259 55 11 0.0 0.0 0.00 0.00 0.00 86 1021.5
20260831094758 55 5 0.0 0.0 0.00 0.00 0.00 85 1021.4
20260831094257 55 5 0.0 0.0 0.00 0.00 0.00 85 1021.6
20260831093759 56 5 0.0 0.0 0.00 0.00 0.00 85 1021.5
20260831093255 56 9 0.0 0.0 0.00 0.00 0.00 85 1021.6
20260831092754 56 5 0.0 0.0 0.00 0.00 0.00 84 1021.7
20260831092254 56 5 0.0 0.0 0.00 0.00 0.00 84 1021.6
20260831091753 57 5 0.0 0.0 0.00 0.00 0.00 84 1021.8
20260831091253 57 5 0.0 0.0 0.00 0.00 0.00 84 1021.9
20260831090754 57 11 0.0 0.0 0.00 0.00 0.00 84 1021.9
20260831090251 58 9 0.0 0.0 0.00 0.00 0.00 83 1022.0
20260831085749 58 9 0.0 0.0 0.00 0.00 0.00 82 1022.0
20260831085247 58 9 0.0 0.0 0.00 0.00 0.00 82 1022.1
20260831084747 59 5 0.0 0.9 0.00 0.00 0.00 82 1022.0
20260831084246 59 5 0.0 0.9 0.00 0.00 0.00 82 1022.1
20260831083743 59 5 0.0 0.9 0.00 0.00 0.00 82 1022.1
20260831083241 59 9 0.0 0.9 0.00 0.00 0.00 82 1022.2
20260831082741 59 5 0.0 2.6 0.00 0.00 0.00 82 1022.1
20260831082241 59 5 0.0 2.6 0.00 0.00 0.00 82 1022.1
20260831081739 60 9 0.0 2.6 0.00 0.00 0.00 81 1022.2
20260831081240 60 9 0.9 2.6 0.00 0.00 0.00 81 1022.1
20260831080733 60 5 0.9 2.6 0.00 0.00 0.00 81 1022.2
20260831080233 60 11 0.9 2.6 0.00 0.00 0.00 81 1022.4
20260831075734 60 9 0.0 1.7 0.00 0.00 0.00 80 1022.4
20260831075234 60 9 0.0 2.6 0.00 0.00 0.00 80 1022.5
20260831074733 60 10 0.0 2.6 0.00 0.00 0.00 80 1022.4
20260831074234 60 5 0.0 2.6 0.00 0.00 0.00 80 1022.5
20260831073728 60 16 0.9 2.6 0.00 0.00 0.00 80 1022.4
20260831073227 61 16 0.9 2.6 0.00 0.00 0.00 80 1022.6
20260831072724 61 22 0.9 1.7 0.00 0.00 0.00 79 1022.7
20260831072221 61 22 0.9 1.7 0.00 0.00 0.00 79 1022.7
20260831071722 61 22 0.0 1.7 0.00 0.00 0.00 79 1022.7
20260831071217 61 22 0.0 1.7 0.00 0.00 0.00 78 1022.8
20260831070717 61 24 0.0 1.7 0.00 0.00 0.00 78 1022.9
20260831070219 62 24 0.0 1.7 0.00 0.00 0.00 78 1022.9
20260831065715 62 24 0.9 2.6 0.00 0.00 0.00 77 1022.9
20260831065216 62 25 0.9 2.6 0.00 0.00 0.00 77 1023.0
20260831064716 62 23 0.9 2.6 0.00 0.00 0.00 77 1023.1
20260831064213 62 26 0.0 2.6 0.00 0.00 0.00 76 1023.0
20260831063712 63 25 0.0 1.7 0.00 0.00 0.00 76 1023.1
20260831063211 63 27 0.0 1.7 0.00 0.00 0.00 75 1023.1
20260831062711 63 23 0.9 1.7 0.00 0.00 0.00 75 1023.2
20260831062212 63 23 0.9 2.6 0.00 0.00 0.00 74 1023.3
20260831061712 63 23 0.9 4.3 0.00 0.00 0.00 74 1023.3
20260831061208 63 19 1.7 4.3 0.00 0.00 0.00 74 1023.3
20260831060708 64 22 1.7 4.3 0.00 0.00 0.00 74 1023.4
20260831060207 64 11 0.9 3.5 0.00 0.00 0.00 73 1023.4
20260831055707 64 24 0.9 3.5 0.00 0.00 0.00 72 1023.5
20260831055205 64 20 0.9 3.5 0.00 0.00 0.00 72 1023.5
20260831054706 64 24 0.9 3.5 0.00 0.00 0.00 71 1023.4
20260831054205 64 13 0.9 2.6 0.00 0.00 0.00 71 1023.5
20260831053705 65 26 0.9 2.6 0.00 0.00 0.00 70 1023.5
20260831053204 65 28 0.9 6.1 0.00 0.00 0.00 70 1023.6
20260831052703 65 20 1.7 6.1 0.00 0.00 0.00 69 1023.7
20260831052205 65 25 0.9 4.3 0.00 0.00 0.00 69 1023.7
20260831051702 65 43 0.9 4.3 0.00 0.00 0.00 69 1023.7
20260831051200 66 17 1.7 4.3 0.00 0.00 0.00 68 1023.8
20260831050700 66 12 1.7 4.3 0.00 0.00 0.00 68 1023.7
20260831050153 66 32 1.7 4.3 0.00 0.00 0.00 68 1023.7
20260831045653 66 13 1.7 5.2 0.00 0.00 0.00 67 1023.8
20260831045153 67 44 2.6 7.8 0.00 0.00 0.00 67 1023.8
20260831044653 67 15 2.6 7.8 0.00 0.00 0.00 66 1023.8
20260831044153 67 13 2.6 6.1 0.00 0.00 0.00 66 1023.9
20260831043653 67 341 2.6 5.2 0.00 0.00 0.00 66 1023.8
20260831043147 67 24 2.6 5.2 0.00 0.00 0.00 65 1024.0
20260831042647 67 306 1.7 5.2 0.00 0.00 0.00 65 1023.9
20260831042147 68 32 1.7 5.2 0.00 0.00 0.00 64 1023.9
20260831041647 68 40 1.7 5.2 0.00 0.00 0.00 64 1023.9
20260831041147 68 305 2.6 6.1 0.00 0.00 0.00 63 1023.9
20260831040648 68 355 3.5 6.1 0.00 0.00 0.00 63 1023.9
20260831040141 68 344 2.6 7.0 0.00 0.00 0.00 63 1023.9
20260831035641 68 21 1.7 7.0 0.00 0.00 0.00 63 1024.0
20260831035141 69 5 2.6 7.0 0.00 0.00 0.00 63 1023.8
20260831034641 69 24 1.7 7.0 0.00 0.00 0.00 62 1023.8
20260831034141 69 355 1.7 6.1 0.00 0.00 0.00 62 1023.8
20260831033642 69 320 1.7 6.1 0.00 0.00 0.00 61 1023.7
20260831033137 69 36 1.7 7.0 0.00 0.00 0.00 61 1023.7
20260831032637 70 24 2.6 7.0 0.00 0.00 0.00 61 1023.6
20260831032135 70 85 2.6 8.7 0.00 0.00 0.00 60 1023.6
20260831031635 70 46 2.6 8.7 0.00 0.00 0.00 60 1023.7
20260831031135 70 54 2.6 8.7 0.00 0.00 0.00 60 1023.7
20260831030636 71 97 3.5 9.6 0.00 0.00 0.00 60 1023.8
20260831030133 71 28 2.6 9.6 0.00 0.00 0.00 60 1023.8
20260831025633 71 114 2.6 7.0 0.00 0.00 0.00 60 1023.7
20260831025134 72 42 2.6 8.7 0.00 0.00 0.00 60 1023.7
20260831024631 72 26 2.6 8.7 0.00 0.00 0.00 59 1023.6
20260831024129 72 342 2.6 8.7 0.00 0.00 0.00 59 1023.8
20260831023630 73 26 2.6 8.7 0.00 0.00 0.00 59 1023.8
20260831023124 73 53 2.6 8.7 0.00 0.00 0.00 58 1023.8
20260831022623 73 37 2.6 7.8 0.00 0.00 0.00 57 1023.7
20260831022123 73 19 2.6 11.3 0.00 0.00 0.00 57 1023.8
20260831021623 74 355 2.6 11.3 0.00 0.00 0.00 57 1023.8
20260831021122 74 42 2.6 8.7 0.00 0.00 0.00 57 1023.8
20260831020624 74 33 2.6 7.8 0.00 0.00 0.00 57 1023.8
20260831020119 74 36 3.5 7.8 0.00 0.00 0.00 56 1023.9
20260831015619 74 76 3.5 9.6 0.00 0.00 0.00 56 1023.8
20260831015116 74 26 3.5 9.6 0.00 0.00 0.00 56 1023.9
20260831014617 74 348 2.6 8.7 0.00 0.00 0.00 56 1023.9
20260831014117 74 57 3.5 12.2 0.00 0.00 0.00 55 1024.0
20260831013617 75 77 2.6 12.2 0.00 0.00 0.00 55 1024.0
20260831013112 75 13 3.5 9.6 0.00 0.00 0.00 55 1024.1
20260831012611 75 26 3.5 9.6 0.00 0.00 0.00 54 1024.0
20260831012111 76 0 3.5 9.6 0.00 0.00 0.00 54 1024.1
20260831011611 76 10 3.5 8.7 0.00 0.00 0.00 54 1024.0
20260831011111 76 36 3.5 8.7 0.00 0.00 0.00 54 1024.1
20260831010612 77 17 2.6 8.7 0.00 0.00 0.00 53 1024.3
20260831010108 76 32 2.6 7.8 0.00 0.00 0.00 53 1024.3
20260831005606 76 13 3.5 13.0 0.00 0.00 0.00 53 1024.3
20260831005105 76 51 4.3 13.0 0.00 0.00 0.00 53 1024.4
20260831004605 76 294 4.3 10.4 0.00 0.00 0.00 52 1024.4
20260831004104 76 57 3.5 8.7 0.00 0.00 0.00 53 1024.6
20260831003606 76 60 4.3 13.0 0.00 0.00 0.00 53 1024.3
20260831003103 76 50 4.3 13.0 0.00 0.00 0.00 53 1024.4
20260831002602 77 14 4.3 10.4 0.00 0.00 0.00 51 1024.5
20260831002104 77 338 3.5 9.6 0.00 0.00 0.00 51 1024.5
20260831001603 77 159 3.5 11.3 0.00 0.00 0.00 51 1024.6
20260831001104 77 53 3.5 11.3 0.00 0.00 0.00 52 1024.6
20260831000603 77 15 3.5 10.4 0.00 0.00 0.00 51 1024.8
20260831000104 77 9 3.5 10.4 0.00 0.00 0.00 51 1024.9
20260830235559 77 42 2.6 7.8 0.00 0.00 0.00 51 1025.0
20260830235058 77 51 2.6 10.4 0.00 0.00 0.00 52 1024.9
20260830234556 77 58 4.3 10.4 0.00 0.00 0.00 51 1025.0
20260830234056 77 5 4.3 9.6 0.00 0.00 0.00 50 1025.1
20260830233557 77 26 3.5 9.6 0.00 0.00 0.00 51 1025.3
20260830233057 77 0 3.5 9.6 0.00 0.00 0.00 50 1025.2
20260830232555 77 347 2.6 7.8 0.00 0.00 0.00 51 1025.5
20260830232055 77 355 3.5 8.7 0.00 0.00 0.00 50 1025.2
20260830231554 77 28 3.5 9.6 0.00 0.00 0.00 50 1025.3
20260830231054 77 36 3.5 9.6 0.00 0.00 0.00 50 1025.4
20260830230555 77 326 4.3 10.4 0.00 0.00 0.00 51 1025.4
20260830230055 77 33 4.3 10.4 0.00 0.00 0.00 50 1025.5
20260830225555 77 280 4.3 9.6 0.00 0.00 0.00 50 1025.5
20260830225052 77 324 3.5 9.6 0.00 0.00 0.00 50 1025.6
20260830224546 76 63 2.6 9.6 0.00 0.00 0.00 50 1025.8
20260830224040 76 44 3.5 8.7 0.00 0.00 0.00 51 1025.9
20260830223534 76 5 3.5 8.7 0.00 0.00 0.00 50 1026.0
20260830223028 76 299 3.5 10.4 0.00 0.00 0.00 51 1026.0
20260830222527 76 5 4.3 10.4 0.00 0.00 0.00 50 1026.2
20260830222026 76 277 3.5 7.8 0.00 0.00 0.00 50 1026.3
20260830221526 76 284 2.6 8.7 0.00 0.00 0.00 50 1026.3
20260830221024 76 5 2.6 8.7 0.00 0.00 0.00 51 1026.4
20260830220525 75 46 2.6 8.7 0.00 0.00 0.00 50 1026.6
20260830220026 75 35 2.6 8.7 0.00 0.00 0.00 50 1026.6
20260830215520 75 15 3.5 11.3 0.00 0.00 0.00 51 1026.7
20260830215021 75 34 3.5 11.3 0.00 0.00 0.00 50 1026.9
20260830214520 75 313 3.5 10.4 0.00 0.00 0.00 52 1026.9
20260830214021 74 36 3.5 10.4 0.00 0.00 0.00 53 1027.0
20260830213520 74 323 3.5 9.6 0.00 0.00 0.00 53 1027.1
20260830213022 74 263 3.5 8.7 0.00 0.00 0.00 52 1027.1
20260830212517 74 5 3.5 9.6 0.00 0.00 0.00 52 1027.2
20260830212016 74 16 3.5 9.6 0.00 0.00 0.00 52 1027.4
20260830211517 74 29 3.5 11.3 0.00 0.00 0.00 51 1027.2
20260830211017 74 74 2.6 11.3 0.00 0.00 0.00 53 1027.3
20260830210516 74 295 2.6 10.4 0.00 0.00 0.00 53 1027.4
20260830210017 73 188 3.5 10.4 0.00 0.00 0.00 53 1027.4
20260830205513 73 42 3.5 8.7 0.00 0.00 0.00 55 1027.5
20260830205012 73 9 3.5 10.4 0.00 0.00 0.00 53 1027.6
20260830204512 73 57 4.3 11.3 0.00 0.00 0.00 55 1027.6
20260830204013 72 316 3.5 11.3 0.00 0.00 0.00 55 1027.6
20260830203512 72 26 3.5 10.4 0.00 0.00 0.00 56 1027.8
20260830203014 72 32 4.3 10.4 0.00 0.00 0.00 56 1027.9
20260830202508 71 288 3.5 8.7 0.00 0.00 0.00 56 1027.9
20260830202008 71 263 4.3 10.4 0.00 0.00 0.00 57 1027.9
20260830201509 71 309 4.3 10.4 0.00 0.00 0.00 58 1028.0
20260830201006 71 277 3.5 9.6 0.00 0.00 0.00 58 1028.0
20260830200507 71 72 3.5 9.6 0.00 0.00 0.00 59 1028.0
20260830200006 70 86 4.3 10.4 0.00 0.00 0.00 59 1028.1
20260830195506 70 20 4.3 10.4 0.00 0.00 0.00 58 1028.2
20260830195000 70 331 2.6 8.7 0.00 0.00 0.00 59 1028.2
20260830194500 70 279 2.6 8.7 0.00 0.00 0.00 60 1028.2
20260830193958 70 332 3.5 8.7 0.00 0.00 0.00 61 1028.3
20260830193459 69 49 3.5 9.6 0.00 0.00 0.00 60 1028.3
20260830192958 70 40 4.3 11.3 0.00 0.00 0.00 61 1028.6
20260830192459 70 320 4.3 11.3 0.00 0.00 0.00 60 1028.5
20260830191954 70 346 3.5 9.6 0.00 0.00 0.00 61 1028.6
20260830191452 70 51 3.5 9.6 0.00 0.00 0.00 61 1028.7
20260830190952 69 31 3.5 9.6 0.00 0.00 0.00 62 1028.7
20260830190452 69 82 2.6 8.7 0.00 0.00 0.00 62 1028.8
20260830185952 69 279 1.7 9.6 0.00 0.00 0.00 63 1028.9
20260830185453 68 42 2.6 9.6 0.00 0.00 0.00 63 1028.9
20260830184946 68 60 1.7 6.1 0.00 0.00 0.00 63 1028.9
20260830184446 68 318 2.6 7.0 0.00 0.00 0.00 62 1028.9
20260830183946 68 355 2.6 8.7 0.00 0.00 0.00 64 1028.9
20260830183446 68 35 2.6 8.7 0.00 0.00 0.00 64 1028.9
20260830182946 67 346 2.6 7.8 0.00 0.00 0.00 66 1028.9
20260830182446 67 14 3.5 8.7 0.00 0.00 0.00 65 1028.9
20260830181945 67 5 3.5 8.7 0.00 0.00 0.00 65 1029.1
20260830181442 67 11 3.5 7.8 0.00 0.00 0.00 65 1029.0
20260830180943 67 351 2.6 7.8 0.00 0.00 0.00 65 1029.0
20260830180442 66 342 1.7 7.8 0.00 0.00 0.00 68 1029.0
20260830175940 66 338 1.7 5.2 0.00 0.00 0.00 70 1028.9
20260830175441 65 31 2.6 9.6 0.00 0.00 0.00 70 1028.9